This is the latest recevied weather packets stored in our database for station/object HA3KE-10. If no packets are shown the sender has not sent any weather packets the latest 10 day(s).
| Time | Temp. | Humidity | Pressure | Rain* | Wind** | Luminosity | Snow |
|---|---|---|---|---|---|---|---|
| 1777462471 | 15° C | 31% | 1022 hPa | - | - | - | - |
| 1777461571 | 15° C | 30% | 1022.1 hPa | - | - | - | - |
| 1777458873 | 14.44° C | 32% | 1022.3 hPa | - | - | - | - |
| 1777457973 | 13.89° C | 31% | 1022.3 hPa | - | - | - | - |
| 1777457073 | 13.89° C | 32% | 1022.3 hPa | - | - | - | - |
| 1777455273 | 13.33° C | 32% | 1022.3 hPa | - | - | - | - |
| 1777454373 | 13.33° C | 32% | 1022.5 hPa | - | - | - | - |
| 1777453473 | 12.78° C | 33% | 1022.5 hPa | - | - | - | - |
| 1777451672 | 12.78° C | 32% | 1022.2 hPa | - | - | - | - |
| 1777450772 | 12.78° C | 32% | 1022.1 hPa | - | - | - | - |
| 1777449872 | 12.22° C | 32% | 1022.2 hPa | - | - | - | - |
| 1777448072 | 12.22° C | 34% | 1021.8 hPa | - | - | - | - |
| 1777447172 | 11.67° C | 34% | 1021.6 hPa | - | - | - | - |
| 1777446271 | 11.11° C | 33% | 1021.4 hPa | - | - | - | - |
| 1777445371 | 11.11° C | 34% | 1021.3 hPa | - | - | - | - |
| 1777444471 | 11.11° C | 36% | 1021.3 hPa | - | - | - | - |
| 1777443571 | 11.11° C | 34% | 1021.2 hPa | - | - | - | - |
| 1777442671 | 11.11° C | 33% | 1021.1 hPa | - | - | - | - |
| 1777441771 | 11.11° C | 34% | 1021 hPa | - | - | - | - |
| 1777440871 | 11.11° C | 34% | 1020.7 hPa | - | - | - | - |
| 1777439970 | 11.11° C | 34% | 1020.5 hPa | - | - | - | - |
| 1777439070 | 11.11° C | 36% | 1020.5 hPa | - | - | - | - |
| 1777438170 | 11.11° C | 35% | 1020.2 hPa | - | - | - | - |
| 1777437273 | 11.67° C | 36% | 1020.1 hPa | - | - | - | - |
| 1777435473 | 11.67° C | 36% | 1019.8 hPa | - | - | - | - |
* Rain since midnight (hover to see other rain measurements)
** Current wind speed in m/s (hover to see current wind gust speed)